Snowfall_Accumulation
0.0 0.0 0.0 0.0 0.0 0.0 0.0 0.0 0.0 0.0 0.0 0.0 0.0 0.0 0.0 0.0 0.0 0.0 0.0 0.0 0.0 0.0 0.0 0.0 0.0 0.0 0.0 0.0 0.0 0.0 0.0 0.0 0.0 0.0 0.0 0.0 0.0 0.0 0.0 0.0 0.0 0.0 0.0 0.0
0.0 0.0 0.0 0.0 0.0 0.0 0.5 0.5 0.1 0.0 0.0 0.0 0.0 0.0 0.0 0.0 0.0 0.0 0.0 0.0 0.0 0.0 0.0 0.0 0.0 0.0 0.0 0.0 0.0 0.0 0.0 0.0 0.0 0.0 0.0 0.0 0.0 0.0 0.0 0.0 0.0 0.0 0.0 0.0
0.0 0.0 0.0 0.0 0.0 0.0 0.0 0.7 0.4 0.4 0.0 0.0 0.0 0.0 0.0 0.0 0.0 0.0 0.0 0.0 0.0 0.0 0.0 0.0 0.0 0.0 0.0 0.0 0.0 0.0 0.0 0.0 0.0 0.0 0.0 0.0 0.0 0.0 0.0 0.0 0.0 0.0 0.0 0.0
0.0 0.0 0.0 0.0 0.0 0.0 0.0 0.0 0.0 0.0 1.0 1.1 0.0 2.7 0.0 0.0 0.0 0.0 0.0 0.0 0.0 0.0 0.0 0.0 0.0 0.0 0.0 0.0 0.0 0.0 0.0 0.0 0.0 0.0 0.0 0.0 0.0 0.0 0.0 0.0 0.0 0.0 0.0 0.0
0.0 0.0 0.0 0.0 0.0 0.0 0.0 0.0 0.0 0.0 1.1 1.1 0.0 3.1 0.0 0.0 0.0 0.0 0.0 0.0 0.0 0.0 0.0 0.0 0.0 0.0 0.0 0.0 0.0 0.0 0.0 0.0 0.0 0.0 0.0 0.0 0.0 0.0 0.0 0.0 0.0 0.0 0.0 0.0
0.0 0.0 0.0 0.0 0.0 0.0 0.0 0.0 0.0 0.2 2.6 4.2 0.5 1.2 0.0 0.0 0.0 0.0 0.0 0.0 0.0 0.0 0.0 0.0 0.0 0.0 0.0 0.0 0.0 0.0 0.0 0.0 0.0 0.0 0.0 0.0 0.0 0.0 0.0 0.0 0.0 0.0 0.0 0.0
0.0 0.0 0.0 0.0 0.0 0.0 0.2 1.7 2.6 2.6 2.6 0.8 0.0 0.8 0.0 0.0 0.0 0.0 0.0 0.0 0.0 0.0 0.0 0.0 0.0 0.0 0.0 0.0 0.0 0.0 0.0 0.0 0.0 0.0 0.0 0.0 0.0 0.0 0.0 0.0 0.0 0.0 0.0 0.0
0.2 0.0 0.1 0.0 0.0 0.1 0.0 2.6 3.7 3.5 0.0 0.1 0.7 2.2 0.0 0.0 0.0 0.0 0.0 0.0 0.0 0.0 0.0 0.0 0.0 0.0 0.0 0.0 0.0 0.0 0.0 0.0 0.0 0.0 0.0 0.0 0.0 0.0 0.0 0.0 0.0 0.0 0.0 0.0
0.9 0.0 0.0 0.0 0.0 4.0 3.9 3.0 0.8 6.0 0.0 1.3 0.3 0.0 0.0 0.0 0.0 0.0 0.0 0.0 0.0 0.0 0.0 0.0 0.0 0.0 0.0 0.0 0.0 0.0 0.0 0.0 0.0 0.0 0.0 0.0 0.0 0.0 0.0 0.0 0.0 0.0 0.0 0.0
1.1 1.4 0.0 0.0 0.0 0.0 6.0 3.2 4.7 5.1 4.5 1.5 0.0 0.0 1.1 0.3 0.0 0.0 0.0 0.0 0.0 0.0 0.0 0.0 0.0 0.0 0.0 0.0 0.0 0.0 0.0 0.0 0.0 0.0 0.0 0.0 0.0 0.0 0.0 0.0 0.0 0.0 0.0 0.0
1.0 2.0 0.0 0.0 0.0 1.2 3.7 7.9 8.2 5.6 2.0 4.3 2.5 0.3 1.3 0.6 0.1 0.6 0.3 0.0 0.0 0.0 0.0 0.0 0.0 0.0 0.0 0.0 0.0 0.0 0.0 0.0 0.0 0.0 0.0 0.0 0.0 0.0 0.0 0.0 0.0 0.0 0.0 0.3
0.7 1.3 0.4 0.0 0.0 0.0 1.5 2.0 6.2 10.3 5.2 2.0 3.9 0.9 0.0 0.1 0.1 0.2 0.3 0.0 0.0 0.0 0.0 0.0 0.0 0.0 0.0 0.0 0.0 0.0 0.0 0.0 0.0 0.0 0.0 0.0 0.0 0.0 0.0 0.0 0.0 0.0 0.2 0.1
0.7 0.4 0.0 0.0 0.0 0.0 0.5 0.0 1.3 7.5 8.8 6.0 8.4 2.5 0.0 0.0 1.7 0.0 0.0 0.0 0.0 0.0 0.0 0.0 0.0 0.0 0.0 0.0 0.0 0.0 0.0 0.0 0.0 0.0 0.0 0.0 0.0 0.0 0.0 0.0 0.0 6.4 4.3 8.8
0.0 1.9 2.8 2.1 1.0 1.2 0.7 0.0 0.7 7.7 11.2 8.3 5.1 6.5 2.4 6.7 7.7 2.0 0.8 0.6 0.3 0.1 0.1 0.2 0.1 0.0 0.0 0.0 0.0 0.0 0.0 0.0 0.0 0.0 0.0 0.0 0.0 0.0 0.1 0.0 8.3 5.3 8.9 6.5
0.0 1.0 0.8 1.2 1.2 1.3 1.1 1.2 1.6 3.7 7.0 10.7 6.6 8.1 12.9 14.6 16.9 13.2 9.3 7.0 3.9 4.4 2.6 1.7 2.1 0.8 0.8 0.4 0.0 0.0 0.0 0.0 0.0 0.0 0.0 0.0 0.0 3.4 3.5 11.3 9.6 11.1 8.9 9.3
0.0 0.0 0.0 0.0 0.8 1.2 0.7 0.7 1.1 2.3 4.1 3.2 2.9 5.2 2.1 4.8 10.0 12.7 11.9 10.9 9.0 8.5 9.4 8.3 8.2 1.4 1.3 0.6 0.0 0.0 0.0 0.0 0.0 0.0 0.0 0.0 3.6 4.7 9.7 7.9 8.6 8.2 8.1 7.2
0.1 0.8 0.1 0.2 0.4 0.0 0.1 0.1 0.3 3.3 3.2 6.0 7.3 8.2 4.8 6.8 11.5 15.3 12.4 11.0 11.1 10.7 10.6 10.1 6.2 4.3 2.6 0.6 0.9 0.0 0.0 0.0 0.0 2.6 0.0 12.7 9.3 8.8 6.6 6.8 5.5 5.4 4.2 3.0
0.3 0.6 0.6 0.1 0.0 0.1 0.0 0.0 0.1 0.8 1.3 2.9 3.9 4.7 2.5 12.7 8.4 11.1 10.6 10.2 12.6 11.3 12.4 13.0 12.4 10.0 9.5 10.4 10.5 12.3 11.9 6.3 12.7 9.8 9.4 10.8 9.1 6.7 5.5 5.7 3.8 2.7 1.6 1.1
0.5 1.1 0.7 0.3 0.1 0.0 0.0 0.0 0.0 1.0 1.2 0.4 1.0 0.9 1.2 3.0 0.6 4.9 11.3 12.8 12.2 11.3 12.5 12.1 12.8 14.4 15.0 14.2 12.8 12.5 13.1 14.5 13.3 11.9 10.7 5.9 6.3 5.5 4.6 3.8 2.8 1.5 0.4 0.2
0.1 0.7 1.5 0.0 0.2 0.0 0.0 0.0 0.0 0.0 1.0 0.0 0.0 0.3 0.4 0.0 1.6 6.8 11.3 11.5 11.4 12.0 13.3 14.0 14.3 14.4 11.7 11.7 8.7 6.9 9.1 8.4 8.8 7.5 6.3 5.3 3.9 2.7 2.1 1.3 0.7 0.4 0.1 0.0
0.2 0.5 0.7 0.2 0.3 0.0 0.0 0.0 0.0 0.0 0.5 0.0 0.0 0.0 0.0 0.7 6.0 8.2 8.9 8.6 9.6 10.4 11.7 11.7 10.5 8.9 9.1 10.2 5.3 5.5 5.3 4.3 4.1 2.8 2.7 2.6 2.0 0.8 0.3 0.1 0.0 0.0 0.0 0.0
0.0 0.0 0.0 0.1 0.0 0.0 0.0 0.0 0.0 0.0 0.0 0.0 0.0 0.0 0.0 0.0 1.1 3.3 4.0 4.7 5.4 6.3 8.3 7.8 4.8 6.0 8.3 7.8 2.2 3.0 2.1 2.6 1.9 1.0 0.6 0.4 0.3 0.1 0.0 0.0 0.0 0.0 0.0 0.0
0.0 0.0 0.0 0.0 0.0 0.0 0.0 0.0 0.0 0.0 0.0 0.0 0.0 0.0 0.0 0.0 0.1 0.5 1.1 1.3 1.5 1.6 1.9 2.6 1.5 1.4 1.7 1.9 0.1 0.0 0.3 0.3 0.3 0.2 0.0 0.0 0.0 0.0 0.0 0.0 0.0 0.0 0.0 0.0
0.0 0.0 0.0 0.0 0.0 0.0 0.0 0.0 0.0 0.0 0.0 0.0 0.0 0.0 0.0 0.0 0.0 0.0 0.2 0.3 0.3 0.5 0.7 1.2 0.8 0.3 0.3 0.2 0.2 0.1 0.1 0.1 0.5 0.9 0.4 0.1 0.0 0.0 0.0 0.0 0.0 0.0 0.0 0.0
0.0 0.0 0.0 0.0 0.0 0.0 0.0 0.0 0.0 0.0 0.0 0.0 0.0 0.0 0.0 0.0 0.0 0.0 0.0 0.0 0.1 0.1 0.2 0.5 0.6 0.2 0.1 0.1 0.0 0.0 0.2 0.4 1.1 0.8 0.2 0.1 0.0 0.0 0.0 0.0 0.0 0.0 0.0 0.0
0.0 0.0 0.0 0.0 0.0 0.0 0.0 0.0 0.0 0.0 0.0 0.0 0.0 0.0 0.0 0.0 0.0 0.0 0.0 0.0 0.0 0.0 0.1 0.1 0.2 0.0 0.1 0.1 0.1 0.0 0.1 0.6 0.9 0.7 0.3 0.0 0.1 0.0 0.0 0.0 0.0 0.0 0.0 0.0